M I D A S
Marine Information and Data Acquisition System
Tripno 664 of the Zeeleeuw from 2004-03-10 07:42:12 to 2004-03-10 18:44:59
Back to CruiseResearch ActivitiesStationsMapUnderway DataData graphs

EquipmentUnitsComments
TimeDGPSUTC
LatitudeDGPSDM.mWGS84
LongitudeDGPSDM.mWGS84
SpeedMeteo Stationm/sRelative wind speed
DirectionMeteo StationdegRelative wind direction
TemperatureMeteo Stationdeg CelciusAir temperature
PressureMeteo StationPaAtmospheric pressure
HumidityMeteo Station%Relative humidity
Missing or incorrect values are displayed as -999
Metereological data collected by the RV Zeeleeuw from 2004-03-10 07:42:12 to 2004-03-10 18:44:59
Time Latitude Longitude Speed Direction Temperature Pressure Humidity
2004-03-10 07:43 51°13.594 2°56.088 0.4 258 1 102800 82
2004-03-10 07:44 51°13.617 2°55.995 2.2 237 1 102800 82
2004-03-10 07:45 51°13.658 2°55.872 2.4 220 1 102800 81
2004-03-10 07:46 51°13.68 2°55.749 0.9 325 1 102800 81
2004-03-10 07:47 51°13.703 2°55.754 4.1 53 1 102790 81
2004-03-10 07:48 51°13.766 2°55.695 4.4 81 1.1 102800 81
2004-03-10 07:49 51°13.862 2°55.607 4.8 48 1.1 102820 80
2004-03-10 07:50 51°13.983 2°55.519 6.6 64 1 102810 80
2004-03-10 07:51 51°14.102 2°55.433 6.1 38 1.1 102810 80
2004-03-10 07:52 51°14.231 2°55.309 6.3 59 1 102800 80
2004-03-10 07:53 51°14.355 2°55.083 3.7 44 1.1 102800 80
2004-03-10 07:54 51°14.467 2°54.811 5.6 85 1.2 102790 81
2004-03-10 07:55 51°14.525 2°54.564 5.9 85 1.2 102800 81
2004-03-10 07:56 51°14.622 2°54.301 9.3 82 1.2 102790 81
2004-03-10 07:57 51°14.756 2°54.014 10.7 63 1.3 102770 81
2004-03-10 07:58 51°14.913 2°53.772 10.6 61 1.3 102780 81
2004-03-10 07:59 51°15.091 2°53.563 11.5 44 1.2 102770 81
2004-03-10 08:00 51°15.292 2°53.401 10.2 50 1.3 102770 81
2004-03-10 08:01 51°15.492 2°53.262 11.3 38 1.3 102780 80
2004-03-10 08:02 51°15.697 2°53.14 11.9 46 1.3 102780 81
2004-03-10 08:03 51°15.912 2°53.014 13.3 43 1.4 102770 81
2004-03-10 08:04 51°16.121 2°52.889 12.3 49 1.4 102770 79
2004-03-10 08:05 51°16.329 2°52.766 11.8 42 1.4 102770 78
2004-03-10 08:06 51°16.533 2°52.671 13 53 1.5 102750 77
2004-03-10 08:07 51°16.749 2°52.578 11.4 50 1.5 102760 77
2004-03-10 08:08 51°16.95 2°52.495 13.3 39 1.6 102760 77
2004-03-10 08:09 51°17.162 2°52.471 13.8 39 1.6 102770 76
2004-03-10 08:10 51°17.378 2°52.443 12.5 35 1.6 102770 77
2004-03-10 08:11 51°17.59 2°52.418 14.3 40 1.6 102760 76
2004-03-10 08:12 51°17.803 2°52.389 13.8 35 1.7 102770 75
2004-03-10 08:13 51°18.009 2°52.377 14.4 29 1.7 102770 74
2004-03-10 08:14 51°18.227 2°52.403 13.4 29 1.7 102770 75
2004-03-10 08:15 51°18.43 2°52.478 15.5 15 1.7 102770 73
2004-03-10 08:16 51°18.623 2°52.563 13.8 14 1.7 102780 72
2004-03-10 08:17 51°18.818 2°52.679 16.3 11 1.8 102770 72
2004-03-10 08:18 51°19.005 2°52.815 14.2 14 1.9 102790 72
2004-03-10 08:19 51°19.191 2°52.949 15.9 15 1.9 102780 72
2004-03-10 08:20 51°19.374 2°53.079 15 13 1.8 102790 71
2004-03-10 08:21 51°19.563 2°53.212 14.4 17 1.9 102790 72
2004-03-10 08:22 51°19.745 2°53.342 14.8 16 1.9 102790 72
2004-03-10 08:23 51°19.929 2°53.474 14 15 1.9 102780 72
2004-03-10 08:24 51°20.113 2°53.607 15.2 17 1.9 102790 70
2004-03-10 08:25 51°20.295 2°53.743 14.5 16 1.9 102780 69
2004-03-10 08:26 51°20.475 2°53.888 14.8 15 1.9 102790 70
2004-03-10 08:27 51°20.656 2°54.036 15.7 11 1.9 102790 70
2004-03-10 08:28 51°20.836 2°54.184 16.1 22 1.9 102780 70
2004-03-10 08:29 51°21.008 2°54.325 14.1 15 1.8 102790 69
2004-03-10 08:30 51°21.192 2°54.472 15.7 11 1.9 102790 70
2004-03-10 08:31 51°21.369 2°54.615 14.7 12 1.8 102800 70
2004-03-10 08:32 51°21.549 2°54.764 16.2 17 1.9 102790 71
2004-03-10 08:33 51°21.735 2°54.916 15.8 12 1.9 102800 70
2004-03-10 08:34 51°21.916 2°55.062 14 18 1.9 102780 71
2004-03-10 08:35 51°22.103 2°55.196 15.2 19 1.9 102790 73
2004-03-10 08:36 51°22.29 2°55.331 17 14 2 102790 73
2004-03-10 08:37 51°22.477 2°55.467 16 16 1.9 102800 72
2004-03-10 08:38 51°22.663 2°55.602 14.6 25 1.9 102800 72
2004-03-10 08:39 51°22.851 2°55.738 14.6 22 1.9 102790 73
2004-03-10 08:40 51°23.038 2°55.874 14.3 30 1.9 102780 73
2004-03-10 08:41 51°23.223 2°56.009 14.4 23 1.9 102780 74
2004-03-10 08:42 51°23.409 2°56.144 14.5 21 2 102790 74
2004-03-10 08:43 51°23.591 2°56.277 15.8 16 2 102790 73
2004-03-10 08:44 51°23.772 2°56.411 16.4 15 2 102790 73
2004-03-10 08:45 51°23.949 2°56.544 16.5 15 2 102780 72
2004-03-10 08:46 51°24.129 2°56.679 14.5 22 2 102800 72
2004-03-10 08:47 51°24.314 2°56.816 15.9 22 2.1 102790 73
2004-03-10 08:48 51°24.487 2°56.935 16 20 2.1 102780 73
2004-03-10 08:49 51°24.672 2°57.055 16.3 22 2 102780 73
2004-03-10 08:50 51°24.86 2°57.179 18.3 22 1.9 102780 73
2004-03-10 08:51 51°25.045 2°57.302 15.2 24 2 102780 73
2004-03-10 08:52 51°25.229 2°57.429 16.7 31 2 102780 73
2004-03-10 08:53 51°25.411 2°57.554 15.8 18 1.9 102790 72
2004-03-10 08:54 51°25.595 2°57.682 17.3 20 1.9 102790 74
2004-03-10 08:55 51°25.775 2°57.807 17.5 17 1.9 102790 74
2004-03-10 08:56 51°25.961 2°57.938 17 20 1.9 102800 72
2004-03-10 08:57 51°26.141 2°58.068 15.1 27 1.8 102790 72
2004-03-10 08:58 51°26.32 2°58.197 15.3 26 1.9 102790 74
2004-03-10 08:59 51°26.5 2°58.328 15.6 23 1.9 102780 72
2004-03-10 09:00 51°26.676 2°58.47 14.7 29 1.9 102800 73
2004-03-10 09:01 51°26.848 2°58.609 15.8 21 2 102780 74
2004-03-10 09:02 51°27.02 2°58.75 15.5 20 2 102800 75
2004-03-10 09:03 51°27.193 2°58.908 15.4 17 1.9 102790 75
2004-03-10 09:04 51°27.358 2°59.072 17.2 22 2 102790 75
2004-03-10 09:05 51°27.515 2°59.252 16 10 1.9 102790 74
2004-03-10 09:06 51°27.644 2°59.487 15.9 10 1.9 102770 75
2004-03-10 09:07 51°27.771 2°59.715 14.2 14 1.9 102770 75
2004-03-10 09:08 51°27.905 2°59.932 17.7 14 2 102770 76
2004-03-10 09:09 51°28.051 3°0.141 15.8 15 1.9 102780 75
2004-03-10 09:10 51°28.193 3°0.348 16.5 9 1.9 102760 75
2004-03-10 09:11 51°28.331 3°0.546 16.7 8 1.9 102760 75
2004-03-10 09:12 51°28.478 3°0.756 15.6 2 1.9 102780 75
2004-03-10 09:13 51°28.622 3°0.961 18 11 1.9 102760 74
2004-03-10 09:14 51°28.766 3°1.164 18.3 8 1.8 102770 73
2004-03-10 09:15 51°28.906 3°1.365 17.6 10 1.8 102760 73
2004-03-10 09:16 51°29.054 3°1.574 16 15 1.8 102800 73
2004-03-10 09:17 51°29.19 3°1.78 17.3 9 1.8 102760 74
2004-03-10 09:18 51°29.323 3°1.998 17.2 13 1.8 102760 73
2004-03-10 09:19 51°29.455 3°2.21 17.3 8 1.8 102760 73
2004-03-10 09:20 51°29.589 3°2.434 18 6 1.7 102770 73
2004-03-10 09:21 51°29.717 3°2.654 16.3 5 1.7 102770 73
2004-03-10 09:22 51°29.847 3°2.873 16.2 14 1.7 102770 73
2004-03-10 09:23 51°29.977 3°3.094 18.2 4 1.8 102760 74
2004-03-10 09:24 51°30.109 3°3.317 15.1 15 1.7 102770 73
2004-03-10 09:25 51°30.24 3°3.544 15.7 10 1.7 102750 74
2004-03-10 09:26 51°30.366 3°3.764 16.2 13 1.7 102770 75
2004-03-10 09:27 51°30.493 3°3.981 16 12 1.7 102750 74
2004-03-10 09:28 51°30.622 3°4.206 15.3 13 1.7 102750 73
2004-03-10 09:29 51°30.751 3°4.429 15.8 13 1.7 102760 73
2004-03-10 09:30 51°30.876 3°4.646 16.6 16 1.7 102760 74
2004-03-10 09:31 51°31.007 3°4.871 15.3 16 1.6 102750 74
2004-03-10 09:32 51°31.131 3°5.087 14.2 19 1.7 102750 74
2004-03-10 09:33 51°31.259 3°5.31 16.2 16 1.6 102740 73
2004-03-10 09:34 51°31.386 3°5.536 16.1 7 1.7 102760 74
2004-03-10 09:35 51°31.515 3°5.762 16.6 9 1.6 102750 74
2004-03-10 09:36 51°31.641 3°5.981 17.5 14 1.7 102750 74
2004-03-10 09:37 51°31.769 3°6.205 17.1 17 1.7 102750 75
2004-03-10 09:38 51°31.905 3°6.423 16.4 15 1.7 102750 73
2004-03-10 09:39 51°32.034 3°6.63 16.6 19 1.7 102730 73
2004-03-10 09:40 51°32.169 3°6.849 16.4 18 1.7 102750 73
2004-03-10 09:41 51°32.299 3°7.078 16.9 4 1.7 102750 72
2004-03-10 09:42 51°32.427 3°7.307 15.3 11 1.7 102740 72
2004-03-10 09:43 51°32.551 3°7.528 14.1 8 1.6 102750 71
2004-03-10 09:44 51°32.685 3°7.764 16.6 10 1.7 102750 73
2004-03-10 09:45 51°32.815 3°7.993 16.5 6 1.6 102750 71
2004-03-10 09:46 51°32.944 3°8.221 15.6 12 1.7 102750 72
2004-03-10 09:47 51°33.07 3°8.446 16.2 12 1.7 102740 72
2004-03-10 09:48 51°33.198 3°8.674 15.1 11 1.7 102740 72
2004-03-10 09:49 51°33.328 3°8.9 16.1 13 1.7 102750 72
2004-03-10 09:50 51°33.455 3°9.123 17.4 12 1.8 102720 72
2004-03-10 09:51 51°33.581 3°9.346 14.8 12 1.8 102750 71
2004-03-10 09:52 51°33.71 3°9.579 13.7 11 1.8 102750 71
2004-03-10 09:53 51°33.837 3°9.81 14.8 7 1.8 102750 72
2004-03-10 09:54 51°33.965 3°10.046 14.5 8 1.8 102740 72
2004-03-10 09:55 51°34.09 3°10.273 16.1 12 1.8 102740 72
2004-03-10 09:56 51°34.219 3°10.51 15.8 14 1.8 102750 71
2004-03-10 09:57 51°34.353 3°10.724 15.2 14 1.7 102740 71
2004-03-10 09:58 51°34.489 3°10.939 16.7 17 1.8 102740 72
2004-03-10 09:59 51°34.626 3°11.155 16.2 16 1.8 102720 71
2004-03-10 10:00 51°34.759 3°11.372 16.8 18 1.8 102730 72
2004-03-10 10:01 51°34.892 3°11.59 15.5 14 1.8 102740 71
2004-03-10 10:02 51°35.028 3°11.812 15.8 16 1.8 102730 71
2004-03-10 10:03 51°35.158 3°12.027 14.2 12 1.9 102750 72
2004-03-10 10:04 51°35.289 3°12.244 16.1 9 1.9 102730 71
2004-03-10 10:05 51°35.422 3°12.468 16 11 1.9 102750 71
2004-03-10 10:06 51°35.551 3°12.681 17.3 11 1.8 102730 70
2004-03-10 10:07 51°35.679 3°12.902 13.7 18 1.8 102740 70
2004-03-10 10:08 51°35.807 3°13.12 16.9 8 1.9 102720 71
2004-03-10 10:09 51°35.934 3°13.338 16 16 1.8 102740 69
2004-03-10 10:10 51°36.063 3°13.554 17.5 12 1.9 102740 71
2004-03-10 10:11 51°36.192 3°13.773 15.9 16 1.9 102720 70
2004-03-10 10:12 51°36.318 3°13.986 14.9 13 1.8 102740 70
2004-03-10 10:13 51°36.45 3°14.205 15.1 11 1.9 102740 71
2004-03-10 10:14 51°36.578 3°14.419 13.8 14 1.9 102740 72
2004-03-10 10:15 51°36.701 3°14.642 15.3 16 1.9 102740 71
2004-03-10 10:16 51°36.823 3°14.869 16.6 6 1.9 102730 71
2004-03-10 10:17 51°36.944 3°15.089 16.6 10 1.9 102730 71
2004-03-10 10:18 51°37.068 3°15.314 16.6 9 1.9 102740 70
2004-03-10 10:19 51°37.188 3°15.534 16.7 14 1.8 102730 69
2004-03-10 10:20 51°37.309 3°15.75 16.7 14 1.9 102740 69
2004-03-10 10:21 51°37.432 3°15.975 17.1 12 1.9 102740 70
2004-03-10 10:22 51°37.553 3°16.203 16.9 7 2 102740 71
2004-03-10 10:23 51°37.672 3°16.431 15 15 2 102740 70
2004-03-10 10:24 51°37.799 3°16.656 16.5 16 2 102720 71
2004-03-10 10:25 51°37.926 3°16.87 15.9 12 2 102720 70
2004-03-10 10:26 51°38.052 3°17.08 16.7 8 2 102740 71
2004-03-10 10:27 51°38.18 3°17.294 15.7 11 2 102730 71
2004-03-10 10:28 51°38.299 3°17.517 15.1 13 2 102730 70
2004-03-10 10:29 51°38.415 3°17.749 16.3 8 2 102730 70
2004-03-10 10:30 51°38.528 3°17.976 16.1 9 1.9 102720 69
2004-03-10 10:31 51°38.643 3°18.206 16.7 7 1.9 102720 70
2004-03-10 10:32 51°38.759 3°18.434 15.9 4 2 102730 69
2004-03-10 10:33 51°38.874 3°18.663 15.7 9 1.9 102730 68
2004-03-10 10:34 51°38.988 3°18.888 14.5 11 1.9 102720 69
2004-03-10 10:35 51°39.105 3°19.118 14.6 10 2 102710 70
2004-03-10 10:36 51°39.224 3°19.352 14.7 12 2 102710 71
2004-03-10 10:37 51°39.342 3°19.58 16.2 14 2 102700 69
2004-03-10 10:38 51°39.458 3°19.808 14.7 9 2.1 102720 71
2004-03-10 10:39 51°39.572 3°20.032 15.4 20 2.2 102730 72
2004-03-10 10:40 51°39.69 3°20.261 14.2 8 2.1 102720 71
2004-03-10 10:41 51°39.807 3°20.484 14.2 10 2.1 102720 72
2004-03-10 10:42 51°39.927 3°20.714 15.8 16 2.1 102710 73
2004-03-10 10:43 51°40.043 3°20.941 16 17 2.1 102710 72
2004-03-10 10:44 51°40.16 3°21.169 16.5 4 2.1 102710 72
2004-03-10 10:45 51°40.268 3°21.399 16.6 5 2 102720 71
2004-03-10 10:46 51°40.38 3°21.639 15.9 5 2 102720 71
2004-03-10 10:47 51°40.492 3°21.873 15.3 11 2 102700 71
2004-03-10 10:48 51°40.601 3°22.102 16.1 5 2 102710 71
2004-03-10 10:49 51°40.707 3°22.348 17.1 8 2 102720 71
2004-03-10 10:50 51°40.808 3°22.585 15.5 3 2 102720 72
2004-03-10 10:51 51°40.914 3°22.833 14.4 9 2 102710 72
2004-03-10 10:52 51°41.017 3°23.075 15.7 12 2 102720 72
2004-03-10 10:53 51°41.121 3°23.32 15.2 11 2 102710 72
2004-03-10 10:54 51°41.227 3°23.562 15.9 7 2 102710 72
2004-03-10 10:55 51°41.338 3°23.795 16.2 5 1.9 102720 72
2004-03-10 10:56 51°41.451 3°24.03 14.7 13 1.9 102700 72
2004-03-10 10:57 51°41.564 3°24.266 15.8 22 1.9 102700 72
2004-03-10 10:58 51°41.679 3°24.501 15.6 10 1.9 102710 73
2004-03-10 10:59 51°41.793 3°24.738 15.7 14 1.9 102710 73
2004-03-10 11:00 51°41.907 3°24.965 13.6 10 2 102710 73
2004-03-10 11:01 51°42.02 3°25.199 16.6 21 2 102710 74
2004-03-10 11:02 51°42.132 3°25.434 14 12 2 102710 73
2004-03-10 11:03 51°42.247 3°25.666 14.7 9 2 102720 73
2004-03-10 11:04 51°42.358 3°25.895 14.7 13 2 102710 73
2004-03-10 11:05 51°42.47 3°26.13 15.9 9 2 102710 73
2004-03-10 11:06 51°42.587 3°26.369 15 14 2 102700 73
2004-03-10 11:07 51°42.702 3°26.601 14.5 13 1.9 102710 72
2004-03-10 11:08 51°42.817 3°26.832 14 14 2 102720 73
2004-03-10 11:09 51°42.934 3°27.064 15.5 9 2 102720 74
2004-03-10 11:10 51°43.052 3°27.298 15.2 8 2 102710 74
2004-03-10 11:11 51°43.167 3°27.527 14.6 12 2 102720 74
2004-03-10 11:12 51°43.284 3°27.759 14.5 17 2 102710 74
2004-03-10 11:13 51°43.402 3°27.996 17.3 6 2.1 102710 74
2004-03-10 11:14 51°43.518 3°28.229 15.8 12 2.1 102720 72
2004-03-10 11:15 51°43.637 3°28.461 15 8 2.1 102700 72
2004-03-10 11:16 51°43.759 3°28.704 13.5 15 2 102710 71
2004-03-10 11:17 51°43.876 3°28.938 13.7 10 2.1 102710 71
2004-03-10 11:18 51°43.993 3°29.17 13.9 9 2 102710 70
2004-03-10 11:19 51°44.109 3°29.401 14.4 7 2 102710 70
2004-03-10 11:20 51°44.209 3°29.657 14.9 5 2.1 102710 71
2004-03-10 11:21 51°44.304 3°29.917 15.1 3 2.1 102700 70
2004-03-10 11:22 51°44.386 3°30.183 15.7 6 2 102700 70
2004-03-10 11:23 51°44.467 3°30.451 13.8 3 2.1 102700 71
2004-03-10 11:24 51°44.552 3°30.72 15.2 3 2.2 102710 72
2004-03-10 11:25 51°44.634 3°30.991 15.6 358 2.1 102700 70
2004-03-10 11:26 51°44.718 3°31.261 14.8 4 2.1 102700 70
2004-03-10 11:27 51°44.804 3°31.536 14.7   2.1 102700 70
2004-03-10 11:28 51°44.889 3°31.806 15 6 2.1 102690 71
2004-03-10 11:29 51°44.978 3°32.087 13.5 8 2.1 102700 70
2004-03-10 11:30 51°45.065 3°32.357 15 358 2.2 102710 71
2004-03-10 11:31 51°45.155 3°32.639 15.1   2.2 102690 71
2004-03-10 11:32 51°45.242 3°32.907 14.8 2 2.2 102690 71
2004-03-10 11:33 51°45.326 3°33.204 14.2 356 2.3 102680 71
2004-03-10 11:34 51°45.387 3°33.508 13.5 354 2.3 102680 71
2004-03-10 11:35 51°45.447 3°33.812 14.1 1 2.3 102670 72
2004-03-10 11:36 51°45.502 3°34.122 14 354 2.3 102680 72
2004-03-10 11:37 51°45.557 3°34.428 14.6 359 2.3 102670 73
2004-03-10 11:38 51°45.614 3°34.745 13.9 354 2.3 102670 72
2004-03-10 11:39 51°45.646 3°35.07 14.2 354 2.3 102660 72
2004-03-10 11:40 51°45.676 3°35.396 13.8 355 2.4 102670 72
2004-03-10 11:41 51°45.708 3°35.718 13.9 357 2.4 102680 73
2004-03-10 11:42 51°45.74 3°36.05 13.6 348 2.3 102670 72
2004-03-10 11:43 51°45.777 3°36.376 14.5 352 2.4 102670 74
2004-03-10 11:44 51°45.822 3°36.694 13.5 355 2.4 102670 73
2004-03-10 11:45 51°45.894 3°37.008 15.9 356 2.4 102670 74
2004-03-10 11:46 51°45.965 3°37.319 13.9 1 2.4 102680 74
2004-03-10 11:47 51°46.034 3°37.628 14.6 359 2.3 102660 73
2004-03-10 11:48 51°46.11 3°37.933 13.5 2 2.4 102690 74
2004-03-10 11:49 51°46.195 3°38.233 14.6 359 2.4 102670 74
2004-03-10 11:50 51°46.278 3°38.534 14.7 1 2.3 102670 74
2004-03-10 11:51 51°46.361 3°38.831 15.1 1 2.3 102660 76
2004-03-10 11:52 51°46.451 3°39.126 15.8 4 2.3 102660 75
2004-03-10 11:53 51°46.545 3°39.427 15.5 4 2.2 102660 74
2004-03-10 11:54 51°46.634 3°39.72 14.3 8 2.2 102660 75
2004-03-10 11:55 51°46.684 3°39.907 9.2 344 2.1 102670 75
2004-03-10 11:56 51°46.611 3°39.983 6.8 258 2.1 102660 76
2004-03-10 11:57 51°46.535 3°39.933 5 214 2.1 102690 76
2004-03-10 11:58 51°46.481 3°39.854 3 187 2 102680 76
2004-03-10 11:59 51°46.443 3°39.766 6.2 160 2.3 102680 77
2004-03-10 12:00 51°46.412 3°39.669 6.7 157 2.2 102680 77
2004-03-10 12:01 51°46.389 3°39.565 6 151 2.2 102680 78
2004-03-10 12:02 51°46.373 3°39.463 6.3 146 2.1 102680 78
2004-03-10 12:03 51°46.351 3°39.366 5.3 157 2.1 102680 79
2004-03-10 12:04 51°46.314 3°39.275 5 179 2.1 102680 79
2004-03-10 12:05 51°46.276 3°39.185 4.1 172 2.2 102670 80
2004-03-10 12:06 51°46.239 3°39.098 5 182 2.2 102670 78
2004-03-10 12:07 51°46.199 3°39.01 5.2 165 2.2 102670 78
2004-03-10 12:08 51°46.165 3°38.92 5 151 2.1 102670 78
2004-03-10 12:09 51°46.137 3°38.832 4.4 152 2 102660 78
2004-03-10 12:10 51°46.111 3°38.74 4.6 145 2 102660 78
2004-03-10 12:11 51°46.091 3°38.646 4.1 144 2 102650 77
2004-03-10 12:12 51°46.061 3°38.547 4.5 153 2.1 102660 78
2004-03-10 12:13 51°46.021 3°38.452 3.7 172 2.1 102650 78
2004-03-10 12:14 51°45.975 3°38.363 2.6 200 2.2 102650 79
2004-03-10 12:15 51°45.93 3°38.282 3 186 2.3 102660 79
2004-03-10 12:16 51°45.89 3°38.204 3.9 168 2.4 102660 77
2004-03-10 12:17 51°45.849 3°38.126 5.3 161 2.3 102650 77
2004-03-10 12:18 51°45.807 3°38.05 3.6 180 2.3 102650 78
2004-03-10 12:19 51°45.764 3°37.975 3.8 177 2.3 102650 77
2004-03-10 12:20 51°45.717 3°37.902 3.4 190 2.4 102650 77
2004-03-10 12:21 51°45.671 3°37.83 4.1 187 2.6 102650 77
2004-03-10 12:22 51°45.624 3°37.758 2.6 203 2.8 102640 77
2004-03-10 12:23 51°45.579 3°37.686 3.2 178 3 102650 75
2004-03-10 12:24 51°45.54 3°37.611 3.6 171 2.9 102640 74
2004-03-10 12:25 51°45.501 3°37.533 4.6 158 2.7 102650 74
2004-03-10 12:26 51°45.467 3°37.462 5.7 161 2.5 102650 74
2004-03-10 12:27 51°45.435 3°37.4 5.4 153 2.5 102640 75
2004-03-10 12:28 51°45.406 3°37.339 6.8 153 2.4 102640 76
2004-03-10 12:29 51°45.378 3°37.261 6.4 144 2.3 102640 75
2004-03-10 12:30 51°45.356 3°37.173 6.5 136 2.3 102640 76
2004-03-10 12:31 51°45.335 3°37.078 4.9 143 2.3 102630 76
2004-03-10 12:32 51°45.31 3°36.983 4.9 154 2.3 102640 76
2004-03-10 12:33 51°45.284 3°36.888 5.9 135 2.3 102640 77
2004-03-10 12:34 51°45.258 3°36.796 5.1 154 2.3 102640 76
2004-03-10 12:35 51°45.216 3°36.717 2.8 188 2.3 102630 76
2004-03-10 12:36 51°45.168 3°36.644 4 183 2.4 102630 76
2004-03-10 12:37 51°45.123 3°36.564 3.1 183 2.5 102630 76
2004-03-10 12:38 51°45.078 3°36.484 3.3 179 2.6 102630 75
2004-03-10 12:39 51°45.031 3°36.408 5 166 2.7 102630 75
2004-03-10 12:40 51°44.985 3°36.33 4.6 168 2.6 102630 75
2004-03-10 12:41 51°44.937 3°36.256 4 161 2.5 102620 75
2004-03-10 12:42 51°44.892 3°36.181 3.6 176 2.4 102620 75
2004-03-10 12:43 51°44.847 3°36.109 4.2 168 2.5 102620 75
2004-03-10 12:44 51°44.806 3°36.032 5.3 175 2.5 102620 76
2004-03-10 12:45 51°44.767 3°35.95 7.8 153 2.4 102620 75
2004-03-10 12:46 51°44.734 3°35.862 6.4 154 2.4 102620 74
2004-03-10 12:47 51°44.706 3°35.771 6.7 160 2.4 102610 74
2004-03-10 12:48 51°44.676 3°35.681 5.2 172 2.4 102620 75
2004-03-10 12:49 51°44.64 3°35.595 4.3 170 2.4 102610 74
2004-03-10 12:50 51°44.598 3°35.514 5.5 179 2.5 102620 76
2004-03-10 12:51 51°44.546 3°35.443 3.2 185 2.7 102610 76
2004-03-10 12:52 51°44.487 3°35.386 3.7 187 3 102600 76
2004-03-10 12:53 51°44.43 3°35.329 3.3 176 3 102610 75
2004-03-10 12:54 51°44.385 3°35.262 6.1 159 3 102610 75
2004-03-10 12:55 51°44.346 3°35.189 6.2 158 2.9 102620 75
2004-03-10 12:56 51°44.318 3°35.112 7.3 136 2.7 102610 75
2004-03-10 12:57 51°44.303 3°35.05 7.3 115 2.6 102610 75
2004-03-10 12:58 51°44.301 3°34.994 7.2 81 2.5 102590 75
2004-03-10 12:59 51°44.34 3°34.969 8 36 2.4 102590 75
2004-03-10 13:00 51°44.385 3°34.996 8.6 24 2.4 102590 76
2004-03-10 13:01 51°44.437 3°35.011 8.4 32 2.4 102590 76
2004-03-10 13:02 51°44.493 3°35.028 8.6 33 2.3 102580 76
2004-03-10 13:03 51°44.54 3°35.067 8.5 15 2.3 102590 76
2004-03-10 13:04 51°44.58 3°35.125 8.9 11 2.5 102590 76
2004-03-10 13:05 51°44.62 3°35.178 8.8 26 2.5 102580 75
2004-03-10 13:06 51°44.663 3°35.21 8.7 31 2.6 102580 76
2004-03-10 13:07 51°44.712 3°35.227 9.1 24 2.6 102580 76
2004-03-10 13:08 51°44.763 3°35.246 9.2 26 2.7 102580 77
2004-03-10 13:09 51°44.813 3°35.267 9.2 37 2.7 102570 77
2004-03-10 13:10 51°44.86 3°35.294 9.8 22 2.6 102570 76
2004-03-10 13:11 51°44.908 3°35.322 8.7 21 2.5 102570 74
2004-03-10 13:12 51°44.955 3°35.356 8.3 27 2.6 102560 75
2004-03-10 13:13 51°45.001 3°35.386 8.5 25 2.6 102560 75
2004-03-10 13:14 51°45.049 3°35.41 8.2 31 2.6 102560 75
2004-03-10 13:15 51°45.097 3°35.441 9.6 15 2.6 102560 76
2004-03-10 13:16 51°45.142 3°35.489 8.3 11 2.7 102550 76
2004-03-10 13:17 51°45.179 3°35.559 9.1 6 2.7 102560 76
2004-03-10 13:18 51°45.21 3°35.64 10.3 6 2.6 102560 76
2004-03-10 13:19 51°45.238 3°35.72 9 2 2.6 102560 75
2004-03-10 13:20 51°45.263 3°35.799 8.3 7 2.6 102550 76
2004-03-10 13:21 51°45.274 3°35.851 9.9 354 2.7 102560 76
2004-03-10 13:22 51°45.273 3°35.881 8.3 347 2.7 102550 76
2004-03-10 13:23 51°45.262 3°35.899 7.1 345 2.7 102540 76
2004-03-10 13:24 51°45.248 3°35.909 6 336 2.7 102550 75
2004-03-10 13:25 51°45.234 3°35.925 7.9 334 2.7 102550 75
2004-03-10 13:26 51°45.24 3°35.972 9.6 7 2.8 102550 76
2004-03-10 13:27 51°45.266 3°35.995 7.9 35 2.7 102540 75
2004-03-10 13:28 51°45.287 3°35.99 9.7 55 2.6 102540 76
2004-03-10 13:29 51°45.304 3°35.964 7 76 2.6 102530 76
2004-03-10 13:30 51°45.318 3°35.928 9.2 90 2.6 102540 76
2004-03-10 13:31 51°45.328 3°35.887 6.3 108 2.6 102550 76
2004-03-10 13:32 51°45.33 3°35.837 9 120 2.7 102540 77
2004-03-10 13:33 51°45.322 3°35.779 7 135 2.7 102550 76
2004-03-10 13:34 51°45.307 3°35.72 6 152 2.7 102540 75
2004-03-10 13:35 51°45.281 3°35.671 3.6 186 2.7 102550 76
2004-03-10 13:36 51°45.244 3°35.644 7.3 230 2.7 102550 76
2004-03-10 13:37 51°45.213 3°35.631 5.9 224 2.6 102550 75
2004-03-10 13:38 51°45.183 3°35.62 6.8 231 2.7 102550 76
2004-03-10 13:39 51°45.152 3°35.618 5.5 252 2.7 102550 77
2004-03-10 13:40 51°45.118 3°35.624 6 257 2.7 102530 76
2004-03-10 13:41 51°45.045 3°35.583 7 141 2.7 102550 76
2004-03-10 13:42 51°45.038 3°35.4 9.4 97 2.8 102540 76
2004-03-10 13:43 51°45.024 3°35.064 7.6 91 2.7 102540 75
2004-03-10 13:44 51°45.006 3°34.706 6.4 88 2.7 102540 75
2004-03-10 13:45 51°44.99 3°34.347 7.8 87 2.7 102530 76
2004-03-10 13:46 51°44.967 3°33.99 7.2 92 2.8 102540 76
2004-03-10 13:47 51°44.928 3°33.637 5.7 101 2.7 102540 75
2004-03-10 13:48 51°44.861 3°33.292 6.4 116 2.7 102540 74
2004-03-10 13:49 51°44.797 3°32.949 5.6 114 2.8 102540 75
2004-03-10 13:50 51°44.737 3°32.603 5.7 103 2.8 102540 75
2004-03-10 13:51 51°44.678 3°32.256 6.1 101 2.8 102540 74
2004-03-10 13:52 51°44.622 3°31.908 4.7 95 2.8 102540 75
2004-03-10 13:53 51°44.564 3°31.559 8.3 108 2.8 102530 76
2004-03-10 13:54 51°44.457 3°31.245 3.3 128 2.8 102540 75
2004-03-10 13:55 51°44.289 3°31.001 2.2 214 2.8 102540 74
2004-03-10 13:56 51°44.109 3°30.775 1.9 177 2.8 102550 74
2004-03-10 13:57 51°43.933 3°30.535 2.2 158 2.8 102550 73
2004-03-10 13:58 51°43.759 3°30.299 1.2 138 2.8 102540 73
2004-03-10 13:59 51°43.587 3°30.057 1.7 150 2.8 102540 74
2004-03-10 14:00 51°43.412 3°29.817 2 172 2.9 102540 74
2004-03-10 14:01 51°43.238 3°29.582 0.4 155 2.9 102540 74
2004-03-10 14:02 51°43.065 3°29.346 0.7 189 2.9 102540 74
2004-03-10 14:03 51°42.894 3°29.117 1.8 285 3 102540 74
2004-03-10 14:04 51°42.721 3°28.885 1 213 3 102530 74
2004-03-10 14:05 51°42.547 3°28.66 1 244 3 102540 74
2004-03-10 14:06 51°42.375 3°28.433 0.7 284 3.1 102520 74
2004-03-10 14:07 51°42.202 3°28.208 1.3 128 3.1 102530 74
2004-03-10 14:08 51°42.025 3°27.984 0.8 196 3.1 102530 74
2004-03-10 14:09 51°41.848 3°27.753 0.5 157 3.2 102530 74
2004-03-10 14:10 51°41.669 3°27.521 1.1 152 3.2 102520 73
2004-03-10 14:11 51°41.491 3°27.293 1.3 131 3.1 102510 72
2004-03-10 14:12 51°41.317 3°27.058 0.8 148 3 102510 72
2004-03-10 14:13 51°41.142 3°26.829 0.6 129 3 102510 72
2004-03-10 14:14 51°40.966 3°26.603 0.9 208 3.1 102510 72
2004-03-10 14:15 51°40.794 3°26.377 1.9 242 3 102510 72
2004-03-10 14:16 51°40.622 3°26.15 0.7 297 3.1 102510 73
2004-03-10 14:17 51°40.453 3°25.918 0.6 154 3.1 102510 73
2004-03-10 14:18 51°40.281 3°25.687 0.4 128 3.2 102500 73
2004-03-10 14:19 51°40.114 3°25.455 1 219 3.2 102500 74
2004-03-10 14:20 51°39.947 3°25.225 0.8 171 3.2 102500 73
2004-03-10 14:21 51°39.782 3°25 0.6 131 3.2 102500 73
2004-03-10 14:22 51°39.617 3°24.776 1.2 296 3.2 102500 73
2004-03-10 14:23 51°39.453 3°24.554 1.9 264 3.3 102500 73
2004-03-10 14:24 51°39.291 3°24.333 1.1 193 3.2 102490 72
2004-03-10 14:25 51°39.127 3°24.11 0.8 329 3.1 102490 72
2004-03-10 14:26 51°38.964 3°23.888 1.2 224 3.2 102490 73
2004-03-10 14:27 51°38.779 3°23.707 2.2 232 3.2 102490 72
2004-03-10 14:28 51°38.562 3°23.624 5.1 259 3.1 102490 72
2004-03-10 14:29 51°38.336 3°23.684 8.8 300 3.1 102470 73
2004-03-10 14:30 51°38.133 3°23.9 11.3 304 3.1 102460 74
2004-03-10 14:31 51°37.947 3°24.178 12 313 3.1 102450 75
2004-03-10 14:32 51°37.768 3°24.471 13.8 308 3.1 102450 75
2004-03-10 14:33 51°37.59 3°24.76 13 310 3.1 102450 75
2004-03-10 14:34 51°37.414 3°25.049 11.4 305 3 102450 74
2004-03-10 14:35 51°37.237 3°25.341 13.2 311 3 102450 75
2004-03-10 14:36 51°37.06 3°25.627 12.3 304 3 102430 75
2004-03-10 14:37 51°36.883 3°25.913 11.7 314 3 102430 75
2004-03-10 14:38 51°36.712 3°26.213 11.3 314 3 102450 75
2004-03-10 14:39 51°36.589 3°26.426 8.4 269 3 102450 76
2004-03-10 14:40 51°36.514 3°26.46 6.5 220 2.9 102470 75
2004-03-10 14:41 51°36.477 3°26.462 6.2 183 2.9 102470 75
2004-03-10 14:42 51°36.453 3°26.447 7.1 157 3.1 102470 75
2004-03-10 14:43 51°36.427 3°26.385 6.2 144 3 102470 75
2004-03-10 14:44 51°36.403 3°26.31 6.4 158 3 102470 75
2004-03-10 14:45 51°36.381 3°26.241 5.8 150 3 102470 75
2004-03-10 14:46 51°36.362 3°26.175 6.5 145 2.9 102460 74
2004-03-10 14:47 51°36.343 3°26.113 6.9 141 2.9 102460 75
2004-03-10 14:48 51°36.326 3°26.04 8 137 2.9 102460 75
2004-03-10 14:49 51°36.309 3°25.967 7.3 150 3 102460 76
2004-03-10 14:50 51°36.281 3°25.899 6.6 155 2.9 102470 75
2004-03-10 14:51 51°36.254 3°25.831 7.3 138 2.9 102460 75
2004-03-10 14:52 51°36.247 3°25.753 6.9 135 2.9 102460 76
2004-03-10 14:53 51°36.236 3°25.677 6.2 139 3 102460 77
2004-03-10 14:54 51°36.224 3°25.6 6.9 140 3 102460 77
2004-03-10 14:55 51°36.222 3°25.519 8.1 126 3 102460 76
2004-03-10 14:56 51°36.222 3°25.438 7.5 126 3 102450 76
2004-03-10 14:57 51°36.227 3°25.356 8 124 3 102450 77
2004-03-10 14:58 51°36.225 3°25.275 6.7 136 2.9 102450 75
2004-03-10 14:59 51°36.21 3°25.195 5.2 138 2.9 102450 76
2004-03-10 15:00 51°36.197 3°25.113 6.4 143 3 102450 76
2004-03-10 15:01 51°36.189 3°25.032 6.8 126 3 102450 77
2004-03-10 15:02 51°36.193 3°24.948 8.2 123 3.1 102440 77
2004-03-10 15:03 51°36.194 3°24.861 7.6 45 3.1 102440 77
2004-03-10 15:04 51°36.186 3°24.772 7.5 139 3 102440 77
2004-03-10 15:05 51°36.181 3°24.683 7.5 126 3 102440 77
2004-03-10 15:06 51°36.179 3°24.595 7.5 136 3 102440 76
2004-03-10 15:07 51°36.18 3°24.507 7.1 132 3 102430 76
2004-03-10 15:08 51°36.197 3°24.423 10.5 116 3.1 102430 77
2004-03-10 15:09 51°36.227 3°24.348 8.2 100 3 102430 76
2004-03-10 15:10 51°36.261 3°24.305 8.6 108 3.1 102420 78
2004-03-10 15:11 51°36.287 3°24.289 10.6 95 3.2 102420 78
2004-03-10 15:12 51°36.307 3°24.282 9.8 90 3.1 102440 77
2004-03-10 15:13 51°36.347 3°24.268 9.7 70 3.1 102420 76
2004-03-10 15:14 51°36.397 3°24.273 10.8 48 3 102410 76
2004-03-10 15:15 51°36.448 3°24.303 10.6 19 3 102420 76
2004-03-10 15:16 51°36.49 3°24.363 10.2 353 3 102420 76
2004-03-10 15:17 51°36.519 3°24.448 11.4 337 3 102410 76
2004-03-10 15:18 51°36.544 3°24.539 11.1 345 3 102410 76
2004-03-10 15:19 51°36.568 3°24.629 12.5 336 3.1 102410 76
2004-03-10 15:20 51°36.588 3°24.719 12.1 337 3.1 102410 76
2004-03-10 15:21 51°36.607 3°24.809 9.3 337 3.1 102420 75
2004-03-10 15:22 51°36.629 3°24.9 9.5 344 3 102410 75
2004-03-10 15:23 51°36.649 3°24.993 10.6 336 3.1 102410 75
2004-03-10 15:24 51°36.666 3°25.088 10.7 336 3.1 102400 74
2004-03-10 15:25 51°36.681 3°25.186 11.2 335 3.1 102400 74
2004-03-10 15:26 51°36.694 3°25.283 10.2 340 3.1 102410 74
2004-03-10 15:27 51°36.707 3°25.378 11.3 337 3.1 102400 74
2004-03-10 15:28 51°36.717 3°25.477 10.2 329 3.1 102400 74
2004-03-10 15:29 51°36.726 3°25.577 11.2 324 3.1 102390 74
2004-03-10 15:30 51°36.732 3°25.679 9.7 324 3.1 102410 74
2004-03-10 15:31 51°36.736 3°25.782 10.7 321 3.1 102390 74
2004-03-10 15:32 51°36.741 3°25.884 9.7 319 3.1 102390 74
2004-03-10 15:33 51°36.745 3°25.988 9.5 325 3.1 102400 74
2004-03-10 15:34 51°36.748 3°26.093 10.6 329 3.1 102390 74
2004-03-10 15:35 51°36.751 3°26.197 10.6 321 3.2 102400 75
2004-03-10 15:36 51°36.752 3°26.301 10.5 42 3.2 102400 76
2004-03-10 15:37 51°36.755 3°26.403 10.6 327 3.2 102400 76
2004-03-10 15:38 51°36.76 3°26.505 9.9 333 3.2 102400 76
2004-03-10 15:39 51°36.768 3°26.607 8.1 348 3.1 102400 75
2004-03-10 15:40 51°36.776 3°26.709 9.6 344 3.1 102420 74
2004-03-10 15:41 51°36.782 3°26.81 9.1 337 3.1 102400 74
2004-03-10 15:42 51°36.784 3°26.909 8.1 332 3 102410 74
2004-03-10 15:43 51°36.782 3°27.009 9.9 331 3 102400 74
2004-03-10 15:44 51°36.779 3°27.109 10 330 3 102400 74
2004-03-10 15:45 51°36.768 3°27.196 7.8 292 3 102390 74
2004-03-10 15:46 51°36.756 3°27.258 8.5 296 3.1 102400 76
2004-03-10 15:47 51°36.747 3°27.313 9.5 287 3.1 102410 75
2004-03-10 15:48 51°36.723 3°27.358 5.9 237 3.1 102400 74
2004-03-10 15:49 51°36.697 3°27.355 3.6 178 3 102410 74
2004-03-10 15:50 51°36.687 3°27.324 5.4 166 3.2 102430 75
2004-03-10 15:51 51°36.69 3°27.291 7.2 147 3.2 102420 73
2004-03-10 15:52 51°36.702 3°27.27 7.8 136 3.2 102410 74
2004-03-10 15:53 51°36.718 3°27.258 7.3 136 3.1 102410 73
2004-03-10 15:54 51°36.736 3°27.249 7.8 133 3.1 102410 74
2004-03-10 15:55 51°36.753 3°27.243 8.2 128 3.1 102400 74
2004-03-10 15:56 51°36.77 3°27.243 8.3 124 2.9 102400 74
2004-03-10 15:57 51°36.787 3°27.243 8.5 127 2.9 102400 73
2004-03-10 15:58 51°36.804 3°27.24 7.1 131 2.9 102410 73
2004-03-10 15:59 51°36.818 3°27.233 7.7 134 2.9 102410 73
2004-03-10 16:00 51°36.831 3°27.224 7.2 138 2.9 102400 73
2004-03-10 16:01 51°36.841 3°27.214 8.4 158 2.9 102400 74
2004-03-10 16:02 51°36.847 3°27.2 6.2 164 3 102400 75
2004-03-10 16:03 51°36.846 3°27.189 4.9 204 3 102410 76
2004-03-10 16:04 51°36.838 3°27.192 6.2 252 3.1 102400 76
2004-03-10 16:05 51°36.825 3°27.207 5.1 255 3 102390 76
2004-03-10 16:06 51°36.809 3°27.231 5.9 256 3 102390 76
2004-03-10 16:07 51°36.757 3°27.213 4.1 206 3 102400 77
2004-03-10 16:08 51°36.671 3°27.017 1.7 234 3 102400 77
2004-03-10 16:09 51°36.566 3°26.738 1.4 116 3 102410 76
2004-03-10 16:10 51°36.479 3°26.431 0.8 131 3 102410 76
2004-03-10 16:11 51°36.362 3°26.156 0.3 234 3 102400 77
2004-03-10 16:12 51°36.248 3°25.881 1.6 118 3 102400 77
2004-03-10 16:13 51°36.134 3°25.602 1.3 110 3 102400 76
2004-03-10 16:14 51°36.025 3°25.319 1.8 127 3 102390 77
2004-03-10 16:15 51°35.915 3°25.039 2.3 127 2.9 102400 77
2004-03-10 16:16 51°35.803 3°24.757 1.3 148 3 102400 77
2004-03-10 16:17 51°35.696 3°24.469 1.8 137 3 102390 77
2004-03-10 16:18 51°35.588 3°24.18 1.6 123 3 102400 77
2004-03-10 16:19 51°35.489 3°23.877 2 111 3 102400 77
2004-03-10 16:20 51°35.431 3°23.546 3.1 115 3 102390 77
2004-03-10 16:21 51°35.378 3°23.213 1.3 138 2.9 102390 77
2004-03-10 16:22 51°35.33 3°22.875 3.7 97 3 102390 78
2004-03-10 16:23 51°35.285 3°22.539 3.8 126 3 102390 78
2004-03-10 16:24 51°35.236 3°22.207 3.6 113 3 102390 78
2004-03-10 16:25 51°35.17 3°21.883 2.2 107 3 102390 78
2004-03-10 16:26 51°35.076 3°21.581 3.3 118 3.1 102390 78
2004-03-10 16:27 51°34.973 3°21.286 1.8 173 3.1 102380 78
2004-03-10 16:28 51°34.873 3°20.99 2.1 145 3 102390 77
2004-03-10 16:29 51°34.777 3°20.689 1.3 183 3 102380 77
2004-03-10 16:30 51°34.68 3°20.391 1.8 137 3.1 102390 78
2004-03-10 16:31 51°34.582 3°20.093 1.4 135 3.1 102380 78
2004-03-10 16:32 51°34.487 3°19.793 1.4 150 3.1 102380 77
2004-03-10 16:33 51°34.39 3°19.496 0.6 153 3.1 102390 77
2004-03-10 16:34 51°34.29 3°19.195 1.3 68 3 102390 77
2004-03-10 16:35 51°34.193 3°18.895 2.3 119 3.1 102390 77
2004-03-10 16:36 51°34.096 3°18.588 1.4 129 3 102380 77
2004-03-10 16:37 51°33.996 3°18.286 0.2 217 3 102380 76
2004-03-10 16:38 51°33.9 3°17.987 1.2 100 3 102380 77
2004-03-10 16:39 51°33.802 3°17.689 3 93 3.1 102390 77
2004-03-10 16:40 51°33.703 3°17.385 2.7 141 3.1 102390 77
2004-03-10 16:41 51°33.606 3°17.079 1.9 132 3 102380 75
2004-03-10 16:42 51°33.508 3°16.776 1.9 108 3 102390 75
2004-03-10 16:43 51°33.414 3°16.469 1.3 146 3 102390 75
2004-03-10 16:44 51°33.312 3°16.161 1.5 198 3.1 102380 75
2004-03-10 16:45 51°33.213 3°15.854 2.5 173 3.1 102380 75
2004-03-10 16:46 51°33.116 3°15.554 2.5 115 3.1 102380 75
2004-03-10 16:47 51°33.021 3°15.252 1.7 124 3.2 102380 76
2004-03-10 16:48 51°32.925 3°14.947 0.7 162 3.2 102380 75
2004-03-10 16:49 51°32.833 3°14.64 2.5 173 3.2 102380 75
2004-03-10 16:50 51°32.741 3°14.335 2.9 144 3.2 102380 75
2004-03-10 16:51 51°32.647 3°14.027 2.2 124 3.2 102380 75
2004-03-10 16:52 51°32.554 3°13.725 2.5 127 3.2 102390 75
2004-03-10 16:53 51°32.46 3°13.419 2.5 110 3.2 102380 76
2004-03-10 16:54 51°32.367 3°13.113 3.3 143 3.2 102390 75
2004-03-10 16:55 51°32.274 3°12.811 3.2 159 3.2 102390 75
2004-03-10 16:56 51°32.178 3°12.511 1.4 163 3.1 102390 75
2004-03-10 16:57 51°32.079 3°12.21 2.2 160 3.1 102390 75
2004-03-10 16:58 51°31.978 3°11.913 1.6 166 3.1 102390 75
2004-03-10 16:59 51°31.881 3°11.609 1.2 167 3.1 102380 74
2004-03-10 17:00 51°31.778 3°11.311 0.9 116 3.1 102390 74
2004-03-10 17:01 51°31.676 3°11.013 0.4 221 3.1 102380 75
2004-03-10 17:02 51°31.575 3°10.715 1.2 197 3.2 102390 75
2004-03-10 17:03 51°31.474 3°10.423 2.3 155 3.3 102390 76
2004-03-10 17:04 51°31.371 3°10.123 2.8 152 3.3 102380 75
2004-03-10 17:05 51°31.27 3°9.826 1.9 155 3.2 102390 75
2004-03-10 17:06 51°31.173 3°9.531 1.3 187 3.2 102390 74
2004-03-10 17:07 51°31.07 3°9.24 1.2 154 3.2 102390 75
2004-03-10 17:08 51°30.969 3°8.944 1.5 143 3.2 102400 74
2004-03-10 17:09 51°30.87 3°8.65 1.7 194 3.2 102390 74
2004-03-10 17:10 51°30.769 3°8.36 2.7 115 3.3 102390 75
2004-03-10 17:11 51°30.667 3°8.071 1.6 186 3.2 102400 74
2004-03-10 17:12 51°30.56 3°7.783 2.3 118 3.2 102400 74
2004-03-10 17:13 51°30.454 3°7.498 1.8 140 3.2 102400 74
2004-03-10 17:14 51°30.355 3°7.204 1.7 161 3.2 102400 73
2004-03-10 17:15 51°30.256 3°6.912 1.6 146 3.1 102390 73
2004-03-10 17:16 51°30.151 3°6.623 2.1 179 3.2 102400 74
2004-03-10 17:17 51°30.036 3°6.35 1.5 139 3.2 102390 74
2004-03-10 17:18 51°29.918 3°6.075 1.9 162 3.2 102390 74
2004-03-10 17:19 51°29.799 3°5.8 0.6 153 3.3 102390 74
2004-03-10 17:20 51°29.678 3°5.524 1.7 186 3.3 102400 74
2004-03-10 17:21 51°29.563 3°5.249 2 212 3.3 102390 74
2004-03-10 17:22 51°29.439 3°4.984 2.3 238 3.3 102390 73
2004-03-10 17:23 51°29.313 3°4.719 2.6 213 3.3 102400 73
2004-03-10 17:24 51°29.182 3°4.464 2.3 211 3.2 102390 72
2004-03-10 17:25 51°29.057 3°4.202 2.1 196 3.3 102400 72
2004-03-10 17:26 51°28.917 3°3.949 2.5 217 3.3 102390 72
2004-03-10 17:27 51°28.776 3°3.699 2.7 228 3.3 102400 72
2004-03-10 17:28 51°28.632 3°3.456 0.7 228 3.3 102400 73
2004-03-10 17:29 51°28.487 3°3.21 0.7 325 3.3 102400 73
2004-03-10 17:30 51°28.343 3°2.964 1.4 237 3.4 102400 74
2004-03-10 17:31 51°28.186 3°2.743 2.9 263 3.3 102400 74
2004-03-10 17:32 51°28.023 3°2.527 2.3 246 3.3 102400 74
2004-03-10 17:33 51°27.866 3°2.311 2.2 258 3.2 102400 73
2004-03-10 17:34 51°27.7 3°2.104 2 252 3.3 102400 73
2004-03-10 17:35 51°27.531 3°1.896 2.3 266 3.2 102400 73
2004-03-10 17:36 51°27.366 3°1.681 2.6 282 3.3 102400 73
2004-03-10 17:37 51°27.199 3°1.475 2.3 258 3.3 102400 74
2004-03-10 17:38 51°27.027 3°1.283 2.6 283 3.3 102400 74
2004-03-10 17:39 51°26.852 3°1.103 1.7 250 3.3 102400 74
2004-03-10 17:40 51°26.679 3°0.912 2.8 293 3.3 102400 74
2004-03-10 17:41 51°26.507 3°0.724 3.2 284 3.3 102400 74
2004-03-10 17:42 51°26.33 3°0.537 3 280 3.3 102400 74
2004-03-10 17:43 51°26.154 3°0.353 3.7 288 3.3 102410 75
2004-03-10 17:44 51°25.974 3°0.167 4.3 290 3.3 102410 75
2004-03-10 17:45 51°25.798 2°59.975 3.1 272 3.3 102400 74
2004-03-10 17:46 51°25.624 2°59.784 3.4 288 3.3 102410 75
2004-03-10 17:47 51°25.448 2°59.596 4.1 285 3.3 102400 75
2004-03-10 17:48 51°25.266 2°59.404 3.6 295 3.3 102410 75
2004-03-10 17:49 51°25.087 2°59.215 3.7 302 3.3 102410 75
2004-03-10 17:50 51°24.905 2°59.026 5.8 276 3.3 102400 75
2004-03-10 17:51 51°24.72 2°58.84 3.5 275 3.3 102410 75
2004-03-10 17:52 51°24.537 2°58.645 4.5 279 3.3 102410 75
2004-03-10 17:53 51°24.359 2°58.455 4.1 274 3.3 102410 75
2004-03-10 17:54 51°24.18 2°58.262 4.5 281 3.3 102410 75
2004-03-10 17:55 51°23.998 2°58.074 4 269 3.2 102400 75
2004-03-10 17:56 51°23.819 2°57.887 4.5 293 3.2 102410 75
2004-03-10 17:57 51°23.636 2°57.704 5.2 291 3.3 102410 76
2004-03-10 17:58 51°23.45 2°57.514 4.3 303 3.3 102410 76
2004-03-10 17:59 51°23.268 2°57.329 3.2 285 3.3 102410 76
2004-03-10 18:00 51°23.09 2°57.138 4 291 3.2 102420 76
2004-03-10 18:01 51°22.908 2°56.946 3.7 288 3.2 102420 76
2004-03-10 18:02 51°22.716 2°56.769 2.2 308 3.2 102420 76
2004-03-10 18:03 51°22.524 2°56.596 3.4 279 3.2 102420 76
2004-03-10 18:04 51°22.33 2°56.428 3.6 296 3.2 102420 76
2004-03-10 18:05 51°22.138 2°56.252 5.6 286 3.2 102420 76
2004-03-10 18:06 51°21.944 2°56.077 4.4 290 3.2 102420 75
2004-03-10 18:07 51°21.75 2°55.912 4.4 293 3.3 102420 76
2004-03-10 18:08 51°21.555 2°55.743 4.8 289 3.3 102420 75
2004-03-10 18:09 51°21.36 2°55.564 3.9 303 3.2 102420 75
2004-03-10 18:10 51°21.167 2°55.385 6.4 293 3.2 102430 75
2004-03-10 18:11 51°20.976 2°55.197 5.2 300 3.3 102410 75
2004-03-10 18:12 51°20.781 2°55.015 5.3 302 3.2 102420 75
2004-03-10 18:13 51°20.584 2°54.833 4.1 311 3.2 102420 75
2004-03-10 18:14 51°20.386 2°54.651 5.1 307 3.2 102420 75
2004-03-10 18:15 51°20.186 2°54.473 5.7 308 3.3 102420 76
2004-03-10 18:16 51°19.987 2°54.292 4.6 313 3.2 102420 75
2004-03-10 18:17 51°19.791 2°54.103 5.1 305 3.2 102420 75
2004-03-10 18:18 51°19.593 2°53.919 4.6 307 3.2 102420 76
2004-03-10 18:19 51°19.399 2°53.73 4.6 324 3.2 102420 76
2004-03-10 18:20 51°19.2 2°53.542 5.9 312 3.2 102420 76
2004-03-10 18:21 51°18.999 2°53.352 5.8 320 3.2 102430 76
2004-03-10 18:22 51°18.801 2°53.163 5.8 303 3.2 102420 76
2004-03-10 18:23 51°18.601 2°52.977 5.1 311 3.2 102420 76
2004-03-10 18:24 51°18.404 2°52.788 4.8 43 3.1 102430 76
2004-03-10 18:25 51°18.206 2°52.612 7.1 301 3.1 102420 76
2004-03-10 18:26 51°17.993 2°52.472 6.3 313 3.1 102420 76
2004-03-10 18:27 51°17.769 2°52.387 6.6 230 3.1 102420 76
2004-03-10 18:28 51°17.544 2°52.344 7.6 316 3.1 102420 76
2004-03-10 18:29 51°17.316 2°52.349 9.6 320 3.2 102410 76
2004-03-10 18:30 51°17.101 2°52.441 9.8 326 3.2 102400 76
2004-03-10 18:31 51°16.888 2°52.55 10.3 317 3.1 102410 76
2004-03-10 18:32 51°16.677 2°52.675 10.9 316 3.1 102410 76
2004-03-10 18:33 51°16.462 2°52.802 9 41 3.1 102410 76
2004-03-10 18:34 51°16.252 2°52.923 9.8 316 3.1 102400 76
2004-03-10 18:35 51°16.103 2°53.013 9.3 308 3.1 102410 76
2004-03-10 18:36 51°15.915 2°53.113 9.6 317 3.1 102410 76
2004-03-10 18:37 51°15.698 2°53.234 10.1 329 3.1 102410 76
2004-03-10 18:38 51°15.484 2°53.366 11.1 325 3.1 102410 76
2004-03-10 18:39 51°15.279 2°53.525 9.5 327 3.1 102410 76
2004-03-10 18:40 51°15.092 2°53.723 10.1 334 3.1 102410 77
2004-03-10 18:41 51°14.925 2°53.959 10.8 335 3.1 102410 77
2004-03-10 18:42 51°14.767 2°54.209 11.5 335 3 102400 76
2004-03-10 18:43 51°14.623 2°54.478 11.1 334 3 102410 76
2004-03-10 18:44 51°14.488 2°54.756 11.7 329 3 102400 77